Home   Weather   Lienz   Past weeks

Flag for Austria Past Weather in Lienz, Tyrol, Austria — Yesterday and Last 2 Weeks

Now
78 °F

Warm.


Feels Like: 79 °F
Forecast: 56 / 79 °F
Wind: 6 mph from Southeast

Location: Lienz

Current Time: Aug 31, 2016 at 6:08:13 PM

Latest Report: Aug 31, 2016 at 5:00 PM


Visibility: N/A

Pressure: 30.01 "Hg (27.77 "Hg at 677m altitude)

Humidity: 47%

Dew Point: 56 °F

Location of LienzLocation

Past Weather in Lienz — Graph

°F

Lienz Temperature Yesterday

Maximum temperature yesterday: 76 °F (at 4:00 PM)
Minimum temperature yesterday: 59 °F (at 5:00 AM)
Average temperature yesterday: 66 °F

High & Low Weather Summary for the Past Weeks

 TemperatureHumidityPressure
High86 °F (Aug 28, 4:00 PM)96% (Aug 20, 7:00 AM)30.45 "Hg (Aug 20, 7:00 AM)
Low47 °F (Aug 23, 7:00 AM)32% (Aug 22, 2:00 PM)29.74 "Hg (Aug 17, 6:00 PM)
Average67 °F72%30.08 "Hg
* Reported Aug 16 4:00 PM — Aug 31 4:00 PM, Lienz, Weather by CustomWeather, © 2016

Note: Actual official high and low records may vary slightly from our data, if they occured in-between our weather recording intervals... More about our weather records

Advertising

Lienz Weather History for the Previous 24 Hours

Scroll right to see more
 ConditionsComfort  
Time TempWeatherWind HumidityBarometerVisibility
4:00 PM
Wed, Aug 31
78 °FWarm.6 mph48%30.02 "HgN/A
3:00 PM77 °FWarm.6 mph49%30.04 "HgN/A
2:00 PM77 °FScattered clouds.5 mph49%30.07 "Hg19 mi
1:00 PM75 °FMild.3 mph52%30.10 "HgN/A
12:00 PM74 °FMild.2 mph57%30.12 "HgN/A
11:00 AM69 °FMild.1 mph73%30.16 "HgN/A
10:00 AM65 °FMild.1 mph79%30.19 "HgN/A
9:00 AM63 °FMild.No wind85%30.20 "HgN/A
8:00 AM61 °FCool.No wind91%30.21 "HgN/A
7:00 AM60 °FOvercast.No wind93%30.22 "Hg11 mi
6:00 AM59 °FCool.1 mph93%30.21 "HgN/A
5:00 AM59 °FCool.1 mph92%30.22 "HgN/A
4:00 AM60 °FCool.1 mph91%30.22 "HgN/A
3:00 AM60 °FCool.No wind92%30.22 "HgN/A
2:00 AM60 °FCool.1 mph90%30.22 "HgN/A
1:00 AM61 °FPassing clouds.16 mph91%30.22 "Hg1 mi
12:00 AM62 °FCool.No wind89%30.22 "HgN/A
11:00 PM
Tue, Aug 30
64 °FMild.No wind86%30.20 "HgN/A
10:00 PM66 °FMild.1 mph80%30.18 "HgN/A
9:00 PM68 °FMild.1 mph72%30.15 "HgN/A
8:00 PM70 °FMild.1 mph67%30.11 "HgN/A
7:00 PMN/APassing clouds.6 mphN/AN/A2 mi
6:00 PM75 °FMild.5 mph54%30.06 "HgN/A
Weather by CustomWeather, © 2016

See weather overviewHow to use our weather pages